Pacific Dawn — 2AGH7 — position and weather

sailwx.info

Track history (hours):
 
Tides and Currents Weather Stations Pressure Air Temp Water Temp Dewpoint Dewpoint Depression Visibility Wind Speed Wind Dir Waves Ship Positions

Pacific Dawn

Last reported at 2017-Nov-20 08:00 UTC. Time now 2017-Nov-21 08:18 UTC.
Position S 26°36' E 154°18'.

Length 245 m; draft 8.4 m.

Type: Passenger vessel. MMSI: 235059368.

Wind from 100 at 12 knots

Barometer 1017.8 mb
Air temperature 21.0 ° C
Visibility: greater than 10.8 NM
Dewpoint 16.0 ° C
Water temperature 26.5 ° C

Date/timePositionNaut miles runAvg speedWind from/ knotsBaromVisibWave heightAir tempDewpointWater temp
2017-Nov-20 08:00S 26°36' E 154°18'20 0.8 100 / 121017.810.8 21.016.026.5
2017-Nov-19 06:00S 26°24' E 154°00'42 3.5 110 / 201016.210.8 22.018.025.3
2017-Nov-18 18:00S 25°42' E 154°00'6410.0 090 / 191013.910.8 20.014.926.0
2017-Nov-18 11:33S 26°40' E 153°28'315.7
2017-Nov-18 11:23S 26°40' E 153°25'615.5
2017-Nov-18 11:00S 26°41' E 153°19'813.5
2017-Nov-18 10:26S 26°44' E 153°11'511.7
2017-Nov-18 10:00S 26°49' E 153°10'713.3
2017-Nov-18 09:30S 26°55' E 153°12'816.1
2017-Nov-18 09:00S 27°02' E 153°15'815.2
2017-Nov-18 08:30S 27°08' E 153°21'715.2
2017-Nov-18 08:00S 27°15' E 153°18'815.5
2017-Nov-18 07:31S 27°20' E 153°11'4 9.0
2017-Nov-18 07:01S 27°24' E 153°09'4 7.3
2017-Nov-18 06:31S 27°27' E 153°06'2 3.5
2017-Nov-18 06:00S 27°26' E 153°04'0 0.0
2017-Nov-18 05:28S 27°26' E 153°04'0 0.0
2017-Nov-18 04:52S 27°26' E 153°04'0 0.0
2017-Nov-18 04:28S 27°26' E 153°04'0 0.0
2017-Nov-18 03:58S 27°26' E 153°04'0 0.0
2017-Nov-18 03:28S 27°26' E 153°04'0 0.0
2017-Nov-18 02:55S 27°26' E 153°04'0 0.0
2017-Nov-18 02:28S 27°26' E 153°04'0 0.0
2017-Nov-18 01:58S 27°26' E 153°04'0 0.0
2017-Nov-18 01:28S 27°26' E 153°04'0 0.0
2017-Nov-18 00:58S 27°26' E 153°04'0 0.0
2017-Nov-18 00:28S 27°26' E 153°04'0 0.0
2017-Nov-17 23:58S 27°26' E 153°04'0 0.0
2017-Nov-17 23:28S 27°26' E 153°04'0 0.0
2017-Nov-17 22:16S 27°26' E 153°04'0 0.0
2017-Nov-17 21:58S 27°26' E 153°04'0 0.0
2017-Nov-17 21:28S 27°26' E 153°04'0 0.0
2017-Nov-17 20:55S 27°26' E 153°04'0 0.0
2017-Nov-17 20:22S 27°26' E 153°04'0 0.0
2017-Nov-17 19:51S 27°26' E 153°04'0 1.1
2017-Nov-17 19:31S 27°27' E 153°04'3 7.0
2017-Nov-17 19:01S 27°25' E 153°08'4 7.7
2017-Nov-17 18:30S 27°22' E 153°10'612.0
2017-Nov-17 18:00S 27°17' E 153°14'813.7
2017-Nov-17 17:26S 27°12' E 153°20'613.0
2017-Nov-17 17:00S 27°06' E 153°19'814.9
2017-Nov-17 16:28S 26°60' E 153°14'816.7
2017-Nov-17 15:59S 26°53' E 153°10'1111.9
2017-Nov-17 15:05S 26°42' E 153°13'51118.2
2017-Nov-16 11:00S 21°30' E 160°36'   140 / 241012.210.8 23.018.326.2
2017-Nov-13 02:00S 22°28' E 166°05'15717.4
2017-Nov-12 17:00S 23°18' E 163°24'34219.0 120 / 211013.710.8 21.012.225.0
2017-Nov-11 23:00S 25°12' E 157°30'24620.3 120 / 211017.810.8 20.014.925.9
2017-Nov-11 10:51S 26°40' E 153°15'911.3
2017-Nov-11 10:04S 26°48' E 153°11'115.6
2017-Nov-11 10:00S 26°49' E 153°10'815.0
2017-Nov-11 09:30S 26°56' E 153°12'817.2
2017-Nov-11 09:00S 27°03' E 153°18'917.5
2017-Nov-11 08:30S 27°12' E 153°21'816.3
2017-Nov-11 08:00S 27°17' E 153°14'612.7
2017-Nov-11 07:30S 27°22' E 153°10'4 7.6
2017-Nov-11 07:01S 27°26' E 153°08'3 5.8
2017-Nov-11 06:30S 27°27' E 153°04'0 0.6
2017-Nov-11 05:48S 27°26' E 153°04'0 0.0
2017-Nov-11 03:15S 27°26' E 153°04'0 0.0
2017-Nov-11 03:00S 27°26' E 153°04'0 0.0
2017-Nov-11 02:30S 27°26' E 153°04'0 0.0
2017-Nov-11 02:00S 27°26' E 153°04'0 0.0
2017-Nov-11 01:30S 27°26' E 153°04'0 0.0
2017-Nov-11 00:57S 27°26' E 153°04'0 0.0
2017-Nov-11 00:27S 27°26' E 153°04'0 0.0
2017-Nov-11 00:00S 27°26' E 153°04'0 0.0
2017-Nov-10 23:24S 27°26' E 153°04'0 0.0
2017-Nov-10 23:00S 27°26' E 153°04'0 0.0
2017-Nov-10 22:30S 27°26' E 153°04'0 0.0
2017-Nov-10 21:57S 27°26' E 153°04'0 0.0
2017-Nov-10 19:45S 27°26' E 153°04'0 1.5
2017-Nov-10 19:30S 27°27' E 153°04'3 5.7
2017-Nov-10 19:00S 27°26' E 153°07'3 6.5
2017-Nov-10 18:30S 27°23' E 153°10'5 9.9
2017-Nov-10 18:00S 27°19' E 153°12'713.4
2017-Nov-10 17:30S 27°15' E 153°19'713.8
2017-Nov-10 16:59S 27°08' E 153°21'816.0
2017-Nov-10 16:30S 27°02' E 153°15'917.2
2017-Nov-10 16:00S 26°54' E 153°11'1113.1
2017-Nov-10 15:09S 26°43' E 153°12'1 8.0
2017-Nov-10 14:59S 26°43' E 153°13'713.3
2017-Nov-10 14:29S 26°46' E 153°20'713.6
2017-Nov-10 13:57S 26°50' E 153°27'1316.1
2017-Nov-10 13:09S 26°58' E 153°38'216.2
2017-Nov-10 13:00S 27°00' E 153°40'1015.7
2017-Nov-10 12:20S 27°09' E 153°45'515.8
2017-Nov-10 12:00S 27°14' E 153°47'815.8
2017-Nov-10 11:30S 27°22' E 153°49'815.8
2017-Nov-10 11:00S 27°30' E 153°50'917.6
2017-Nov-10 10:30S 27°38' E 153°51'918.5
2017-Nov-10 10:00S 27°48' E 153°52'918.7
2017-Nov-10 09:30S 27°57' E 153°52'918.8
2017-Nov-10 09:00S 28°06' E 153°53'918.8
2017-Nov-10 08:30S 28°16' E 153°54'  
Track history (hours):
 
Tides and Currents Weather Stations Pressure Air Temp Water Temp Dewpoint Dewpoint Depression Visibility Wind Speed Wind Dir Waves Ship Positions

Pacific Dawn

Last reported at 2017-Nov-20 08:00 UTC. Time now 2017-Nov-21 08:18 UTC.
Position S 26°36' E 154°18'.

Length 245 m; draft 8.4 m.

Type: Passenger vessel. MMSI: 235059368.

Wind from 100 at 12 knots

Barometer 1017.8 mb
Air temperature 21.0 ° C
Visibility: greater than 10.8 NM
Dewpoint 16.0 ° C
Water temperature 26.5 ° C

Date/timePositionNaut miles runAvg speedWind from/ knotsBaromVisibWave heightAir tempDewpointWater temp
2017-Nov-20 08:00S 26°36' E 154°18'20 0.8 100 / 121017.810.8 21.016.026.5
2017-Nov-19 06:00S 26°24' E 154°00'42 3.5 110 / 201016.210.8 22.018.025.3
2017-Nov-18 18:00S 25°42' E 154°00'6410.0 090 / 191013.910.8 20.014.926.0
2017-Nov-18 11:33S 26°40' E 153°28'315.7
2017-Nov-18 11:23S 26°40' E 153°25'615.5
2017-Nov-18 11:00S 26°41' E 153°19'813.5
2017-Nov-18 10:26S 26°44' E 153°11'511.7
2017-Nov-18 10:00S 26°49' E 153°10'713.3
2017-Nov-18 09:30S 26°55' E 153°12'816.1
2017-Nov-18 09:00S 27°02' E 153°15'815.2
2017-Nov-18 08:30S 27°08' E 153°21'715.2
2017-Nov-18 08:00S 27°15' E 153°18'815.5
2017-Nov-18 07:31S 27°20' E 153°11'4 9.0
2017-Nov-18 07:01S 27°24' E 153°09'4 7.3
2017-Nov-18 06:31S 27°27' E 153°06'2 3.5
2017-Nov-18 06:00S 27°26' E 153°04'0 0.0
2017-Nov-18 05:28S 27°26' E 153°04'0 0.0
2017-Nov-18 04:52S 27°26' E 153°04'0 0.0
2017-Nov-18 04:28S 27°26' E 153°04'0 0.0
2017-Nov-18 03:58S 27°26' E 153°04'0 0.0
2017-Nov-18 03:28S 27°26' E 153°04'0 0.0
2017-Nov-18 02:55S 27°26' E 153°04'0 0.0
2017-Nov-18 02:28S 27°26' E 153°04'0 0.0
2017-Nov-18 01:58S 27°26' E 153°04'0 0.0
2017-Nov-18 01:28S 27°26' E 153°04'0 0.0
2017-Nov-18 00:58S 27°26' E 153°04'0 0.0
2017-Nov-18 00:28S 27°26' E 153°04'0 0.0
2017-Nov-17 23:58S 27°26' E 153°04'0 0.0
2017-Nov-17 23:28S 27°26' E 153°04'0 0.0
2017-Nov-17 22:16S 27°26' E 153°04'0 0.0
2017-Nov-17 21:58S 27°26' E 153°04'0 0.0
2017-Nov-17 21:28S 27°26' E 153°04'0 0.0
2017-Nov-17 20:55S 27°26' E 153°04'0 0.0
2017-Nov-17 20:22S 27°26' E 153°04'0 0.0
2017-Nov-17 19:51S 27°26' E 153°04'0 1.1
2017-Nov-17 19:31S 27°27' E 153°04'3 7.0
2017-Nov-17 19:01S 27°25' E 153°08'4 7.7
2017-Nov-17 18:30S 27°22' E 153°10'612.0
2017-Nov-17 18:00S 27°17' E 153°14'813.7
2017-Nov-17 17:26S 27°12' E 153°20'613.0
2017-Nov-17 17:00S 27°06' E 153°19'814.9
2017-Nov-17 16:28S 26°60' E 153°14'816.7
2017-Nov-17 15:59S 26°53' E 153°10'1111.9
2017-Nov-17 15:05S 26°42' E 153°13'51118.2
2017-Nov-16 11:00S 21°30' E 160°36'   140 / 241012.210.8 23.018.326.2
2017-Nov-13 02:00S 22°28' E 166°05'15717.4
2017-Nov-12 17:00S 23°18' E 163°24'34219.0 120 / 211013.710.8 21.012.225.0
2017-Nov-11 23:00S 25°12' E 157°30'24620.3 120 / 211017.810.8 20.014.925.9
2017-Nov-11 10:51S 26°40' E 153°15'911.3
2017-Nov-11 10:04S 26°48' E 153°11'115.6
2017-Nov-11 10:00S 26°49' E 153°10'815.0
2017-Nov-11 09:30S 26°56' E 153°12'817.2
2017-Nov-11 09:00S 27°03' E 153°18'917.5
2017-Nov-11 08:30S 27°12' E 153°21'816.3
2017-Nov-11 08:00S 27°17' E 153°14'612.7
2017-Nov-11 07:30S 27°22' E 153°10'4 7.6
2017-Nov-11 07:01S 27°26' E 153°08'3 5.8
2017-Nov-11 06:30S 27°27' E 153°04'0 0.6
2017-Nov-11 05:48S 27°26' E 153°04'0 0.0
2017-Nov-11 03:15S 27°26' E 153°04'0 0.0
2017-Nov-11 03:00S 27°26' E 153°04'0 0.0
2017-Nov-11 02:30S 27°26' E 153°04'0 0.0
2017-Nov-11 02:00S 27°26' E 153°04'0 0.0
2017-Nov-11 01:30S 27°26' E 153°04'0 0.0
2017-Nov-11 00:57S 27°26' E 153°04'0 0.0
2017-Nov-11 00:27S 27°26' E 153°04'0 0.0
2017-Nov-11 00:00S 27°26' E 153°04'0 0.0
2017-Nov-10 23:24S 27°26' E 153°04'0 0.0
2017-Nov-10 23:00S 27°26' E 153°04'0 0.0
2017-Nov-10 22:30S 27°26' E 153°04'0 0.0
2017-Nov-10 21:57S 27°26' E 153°04'0 0.0
2017-Nov-10 19:45S 27°26' E 153°04'0 1.5
2017-Nov-10 19:30S 27°27' E 153°04'3 5.7
2017-Nov-10 19:00S 27°26' E 153°07'3 6.5
2017-Nov-10 18:30S 27°23' E 153°10'5 9.9
2017-Nov-10 18:00S 27°19' E 153°12'713.4
2017-Nov-10 17:30S 27°15' E 153°19'713.8
2017-Nov-10 16:59S 27°08' E 153°21'816.0
2017-Nov-10 16:30S 27°02' E 153°15'917.2
2017-Nov-10 16:00S 26°54' E 153°11'1113.1
2017-Nov-10 15:09S 26°43' E 153°12'1 8.0
2017-Nov-10 14:59S 26°43' E 153°13'713.3
2017-Nov-10 14:29S 26°46' E 153°20'713.6
2017-Nov-10 13:57S 26°50' E 153°27'1316.1
2017-Nov-10 13:09S 26°58' E 153°38'216.2
2017-Nov-10 13:00S 27°00' E 153°40'1015.7
2017-Nov-10 12:20S 27°09' E 153°45'515.8
2017-Nov-10 12:00S 27°14' E 153°47'815.8
2017-Nov-10 11:30S 27°22' E 153°49'815.8
2017-Nov-10 11:00S 27°30' E 153°50'917.6
2017-Nov-10 10:30S 27°38' E 153°51'918.5
2017-Nov-10 10:00S 27°48' E 153°52'918.7
2017-Nov-10 09:30S 27°57' E 153°52'918.8
2017-Nov-10 09:00S 28°06' E 153°53'918.8
2017-Nov-10 08:30S 28°16' E 153°54'  

Dump ship's entire track history